User: anonymous   Login
Location: Unspecified
(0.0000°N, 0.0000°E)
Time: 21:28:47
(UTC+00:00)
Language:

STARLINK-31087 - Orbit

View from above orbital plane
View from above orbital plane
View from above satellite
View from above satellite

Ground track
Ground track

The orbit is defined by the following mean orbital elements,

1 58597U          26145.31625270 +.00000000 +00000-0 +84640-4 0 00007
2 58597  43.0059  95.7865 0001262 274.3523  85.7185 15.27583843    04
Epoch (UTC): 25 May 2026 07:35:24
Eccentricity: 0.0001262
inclination: 43.0059°
perigee height: 482 km
apogee height: 484 km
right ascension of ascending node: 95.7865°
argument of perigee: 274.3523°
revolutions per day: 15.27583843
mean anomaly at epoch: 85.7185°

The dashed part of the orbit path shows where the satellite is in the earth's shadow,  

DLR